Location: Innsbruck
(47.2657°N, 11.3914°E)
Time: 20:07:31
(UTC+01:00)

BEESAT 3 - Pass Details

Date: 11 December 2021
Orbit: 472 x 512 km, 64.9° (Epoch: 23 January)

Event Time Altitude Azimuth Distance (km) Brightness Sun altitude
Rises 18:28:21 0° 236° (SW) 2,555 ? -20.1°
Reaches altitude 10° 18:30:35 10° 244° (WSW) 1,685 ? -20.4°
Maximum altitude 18:34:08 39° 314° (NW) 763 ? -21.0°
Enters shadow 18:35:17 31° 355° (N) 910 ? -21.2°
